Change the Weather History Date:

Monday, March 11, 2013

  Actual Average Record
Temperature  
Mean Temperature 44 °F -  
Max Temperature 60 °F 52 °F 70 °F (1989)
Min Temperature 28 °F 34 °F 16 °F (1948)
Degree Days  
Heating Degree Days 21    
Moisture  
Dew Point 23 °F    
Average Humidity 45    
Maximum Humidity 70    
Minimum Humidity 22    
Precipitation  
Precipitation 0.00 in - - ()
Sea Level Pressure  
Sea Level Pressure 30.22 in    
Wind  
Wind Speed 6 mph (NW)    
Max Wind Speed 23 mph    
Max Gust Speed 29 mph    
Visibility 10 miles    
Events      
Averages and records for this station are not official NWS values.
T = Trace of Precipitation, MM = Missing Value Source: NWS Daily Summary

Daily Weather History Graph

Daily Weather History Graph

Search for Another Location

Airport or City:

Trip Planner

Search our weather history database for the weather conditions in past years. The results will help you decide how hot, cold, wet, or windy it might be!

Date:

Astronomy

Mar. 11, 2013 Rise Set
Actual Time 7:53 AM MDT 7:38 PM MDT
Civil Twilight 7:26 AM MDT 8:06 PM MDT
Nautical Twilight 6:54 AM MDT 8:37 PM MDT
Astronomical Twilight 6:22 AM MDT 9:10 PM MDT
Moon 7:29 AM MDT (3/11) 7:55 PM MDT (3/11)
Length of Visible Light 12h 39m
Length of Day
11h 45m
Waning Crescent, 0% of the Moon is Illuminated
Mar 11
Waning Crescent
Mar 11
New
Mar 19
First Quarter
Mar 27
Full
Apr 2
Last Quarter

Hourly Weather History & Observations

Time (MDT) Temp. Windchill Dew Point Humidity Pressure Visibility Wind Dir Wind Speed Gust Speed Precip Events Conditions
12:15 AM 37.4 °F 32.1 °F 21.2 °F 52% 30.29 in 10.0 mi ENE 6.9 mph - N/A   Clear
12:35 AM 35.6 °F 30.7 °F 21.2 °F 56% 30.29 in 10.0 mi ENE 5.8 mph - N/A   Clear
12:55 AM 35.6 °F 32.8 °F 23.0 °F 60% 30.28 in 10.0 mi SSW 3.5 mph - N/A   Clear
1:15 AM 37.4 °F 33.8 °F 24.8 °F 60% 30.28 in 10.0 mi WNW 4.6 mph - N/A   Clear
1:35 AM 35.6 °F 29.9 °F 23.0 °F 60% 30.28 in 10.0 mi WSW 6.9 mph - N/A   Clear
1:55 AM 33.8 °F 29.6 °F 19.4 °F 56% 30.28 in 10.0 mi South 4.6 mph - N/A   Clear
2:15 AM 32.0 °F - 19.4 °F 60% 30.27 in 10.0 mi Calm Calm - N/A   Clear
2:35 AM 30.2 °F - 17.6 °F 60% 30.28 in 10.0 mi Calm Calm - N/A   Clear
2:55 AM 30.2 °F - 19.4 °F 64% 30.28 in 10.0 mi Calm Calm - N/A   Clear
3:15 AM 32.0 °F - 19.4 °F 60% 30.28 in 10.0 mi Calm Calm - N/A   Clear
3:35 AM 33.8 °F 29.6 °F 21.2 °F 60% 30.27 in 10.0 mi SW 4.6 mph - N/A   Partly Cloudy
3:55 AM 30.2 °F - 17.6 °F 60% 30.26 in 10.0 mi Calm Calm - N/A   Partly Cloudy
4:15 AM 30.2 °F - 19.4 °F 64% 30.25 in 10.0 mi Calm Calm - N/A   Clear
4:35 AM 28.4 °F - 17.6 °F 64% 30.25 in 10.0 mi Calm Calm - N/A   Clear
4:55 AM 30.2 °F - 17.6 °F 60% 30.24 in 10.0 mi Calm Calm - N/A   Clear
5:15 AM 32.0 °F 28.7 °F 19.4 °F 60% 30.24 in 10.0 mi South 3.5 mph - N/A   Clear
5:35 AM 32.0 °F 28.7 °F 19.4 °F 60% 30.24 in 10.0 mi South 3.5 mph - N/A   Clear
5:55 AM 30.2 °F 26.7 °F 17.6 °F 60% 30.25 in 10.0 mi SE 3.5 mph - N/A   Clear
6:15 AM 33.8 °F 27.7 °F 17.6 °F 52% 30.24 in 10.0 mi SW 6.9 mph - N/A   Clear
6:35 AM 32.0 °F 27.5 °F 17.6 °F 55% 30.24 in 10.0 mi ESE 4.6 mph - N/A   Clear
6:55 AM 30.2 °F 26.7 °F 17.6 °F 60% 30.25 in 10.0 mi ENE 3.5 mph - N/A   Clear
7:15 AM 28.4 °F - 15.8 °F 59% 30.25 in 10.0 mi Calm Calm - N/A   Clear
7:35 AM 32.0 °F 28.7 °F 17.6 °F 55% 30.25 in 10.0 mi SW 3.5 mph - N/A   Clear
7:55 AM 28.4 °F - 15.8 °F 59% 30.25 in 10.0 mi Calm Calm - N/A   Clear
8:15 AM 28.4 °F 19.7 °F 17.6 °F 64% 30.25 in 10.0 mi NE 9.2 mph - N/A   Clear
8:35 AM 28.4 °F 21.2 °F 19.4 °F 69% 30.25 in 10.0 mi East 6.9 mph - N/A   Partly Cloudy
8:55 AM 30.2 °F 25.4 °F 21.2 °F 69% 30.25 in 10.0 mi ENE 4.6 mph - N/A   Scattered Clouds
9:15 AM 33.8 °F 29.6 °F 24.8 °F 70% 30.25 in 10.0 mi NE 4.6 mph - N/A   Clear
9:35 AM 35.6 °F - 21.2 °F 56% 30.26 in 10.0 mi Calm Calm - N/A   Clear
9:55 AM 35.6 °F - 21.2 °F 56% 30.26 in 10.0 mi Calm Calm - N/A   Partly Cloudy
10:15 AM 39.2 °F 35.0 °F 21.2 °F 49% 30.26 in 10.0 mi ESE 5.8 mph - N/A   Partly Cloudy
10:35 AM 41.0 °F 36.4 °F 23.0 °F 49% 30.26 in 10.0 mi East 6.9 mph - N/A   Clear
10:55 AM 41.0 °F 37.1 °F 23.0 °F 49% 30.26 in 10.0 mi ESE 5.8 mph - N/A   Mostly Cloudy
11:15 AM 42.8 °F 38.6 °F 21.2 °F 42% 30.26 in 10.0 mi SE 6.9 mph - N/A   Partly Cloudy
11:35 AM 46.4 °F 43.5 °F 24.8 °F 43% 30.26 in 10.0 mi ESE 5.8 mph - N/A   Scattered Clouds
11:55 AM 48.2 °F - 24.8 °F 40% 30.26 in 10.0 mi SSE 6.9 mph - N/A   Partly Cloudy
12:15 PM 48.2 °F - 23.0 °F 37% 30.26 in 10.0 mi SSW 3.5 mph - N/A   Mostly Cloudy
12:35 PM 51.8 °F - 21.2 °F 30% 30.25 in 10.0 mi SSW 5.8 mph - N/A   Overcast
12:55 PM 51.8 °F - 21.2 °F 30% 30.24 in 10.0 mi South 6.9 mph 16.1 mph N/A   Mostly Cloudy
1:15 PM 57.2 °F - 21.2 °F 25% 30.23 in 10.0 mi West 15.0 mph 21.9 mph N/A   Partly Cloudy
1:35 PM 57.2 °F - 21.2 °F 25% 30.21 in 10.0 mi West 17.3 mph 23.0 mph N/A   Clear
1:55 PM 57.2 °F - 21.2 °F 25% 30.21 in 10.0 mi West 19.6 mph 26.5 mph N/A   Clear
2:15 PM 57.2 °F - 21.2 °F 25% 30.21 in 10.0 mi NW 13.8 mph 19.6 mph N/A   Clear
2:35 PM 57.2 °F - 21.2 °F 25% 30.20 in 10.0 mi West 9.2 mph 23.0 mph N/A   Clear
2:55 PM 59.0 °F - 21.2 °F 23% 30.18 in 10.0 mi West 12.7 mph 28.8 mph N/A   Clear
3:15 PM 60.8 °F - 21.2 °F 22% 30.17 in 10.0 mi West 10.4 mph - N/A   Clear
3:35 PM 59.0 °F - 24.8 °F 27% 30.17 in 10.0 mi NW 16.1 mph 23.0 mph N/A   Clear
3:55 PM 59.0 °F - 24.8 °F 27% 30.17 in 10.0 mi NNW 17.3 mph 24.2 mph N/A   Clear
4:15 PM 59.0 °F - 24.8 °F 27% 30.16 in 10.0 mi NW 16.1 mph 20.7 mph N/A   Clear
4:35 PM 59.0 °F - 24.8 °F 27% 30.16 in 10.0 mi NNW 18.4 mph 26.5 mph N/A   Clear
4:55 PM 57.2 °F - 23.0 °F 27% 30.16 in 10.0 mi NW 17.3 mph - N/A   Clear
5:15 PM 59.0 °F - 24.8 °F 27% 30.15 in 10.0 mi NW 18.4 mph 24.2 mph N/A   Clear
5:35 PM 59.0 °F - 24.8 °F 27% 30.15 in 10.0 mi NNW 18.4 mph 23.0 mph N/A   Clear
5:55 PM 59.0 °F - 24.8 °F 27% 30.15 in 10.0 mi NW 15.0 mph - N/A   Clear
6:15 PM 59.0 °F - 24.8 °F 27% 30.14 in 10.0 mi WNW 17.3 mph - N/A   Clear
6:35 PM 57.2 °F - 26.6 °F 31% 30.15 in 10.0 mi WNW 23.0 mph - N/A   Clear
6:55 PM 57.2 °F - 26.6 °F 31% 30.16 in 10.0 mi NW 18.4 mph 23.0 mph N/A   Clear
7:35 PM 53.6 °F - 28.4 °F 38% 30.17 in 10.0 mi NNW 12.7 mph 16.1 mph N/A   Clear
7:55 PM 53.6 °F - 28.4 °F 38% 30.17 in 10.0 mi NW 9.2 mph - N/A   Clear
8:15 PM 53.6 °F - 28.4 °F 38% 30.17 in 10.0 mi North 9.2 mph - N/A   Clear
8:35 PM 53.6 °F - 28.4 °F 38% 30.17 in 10.0 mi East 3.5 mph - N/A   Clear
8:55 PM 53.6 °F - 28.4 °F 38% 30.17 in 10.0 mi NW 4.6 mph - N/A   Clear
9:15 PM 51.8 °F - 28.4 °F 41% 30.18 in 10.0 mi Calm Calm - N/A   Clear
9:35 PM 51.8 °F - 28.4 °F 41% 30.18 in 10.0 mi NNW 5.8 mph - N/A   Clear
9:55 PM 50.0 °F - 28.4 °F 43% 30.19 in 10.0 mi NW 5.8 mph - N/A   Clear
10:15 PM 51.8 °F - 28.4 °F 41% 30.19 in 10.0 mi NW 8.1 mph - N/A   Clear
10:35 PM 51.8 °F - 28.4 °F 41% 30.20 in 10.0 mi North 6.9 mph - N/A   Clear
10:55 PM 51.8 °F - 28.4 °F 41% 30.20 in 10.0 mi NNW 9.2 mph - N/A   Clear
11:15 PM 51.8 °F - 28.4 °F 41% 30.20 in 10.0 mi NW 10.4 mph - N/A   Clear
11:35 PM 51.8 °F - 26.6 °F 38% 30.21 in 10.0 mi NW 8.1 mph - N/A   Clear
11:55 PM 51.8 °F - 28.4 °F 41% 30.21 in 10.0 mi NNW 4.6 mph - N/A   Clear